Content
SEND FEEDBACK

Daily
Averages
Monthly
Summary
United States of America

FISH LAKE, ALASKA


Home > North America > United States > Alaska
Elevation: 200 feet     Latitude: 65 10N     Longitude: 152 06W

WEATHER
 
SELECT A DAY
Number of Records: 186,127;   Date Range: 1/1/95 - 12/27/14
 
SHARE

PRINT THIS DATA

[ ← Previous Day ]
WEATHER ALMANAC - JANUARY 3, 2013
[ Next Day → ]
[ °C ]   °F
Weather ElementAverageHighLow
Temperature14.4 °F17.1 °F (7:52 pm)9 °F (1:52 am)
Dewpoint7.4 °F9 °F (3:52 am)3.9 °F (1:52 am)
Humidity74 %84 % (2:52 am)70 % (8:52 am)
Barometer29.63 in29.68 in (11:52 pm)29.57 in (1:52 am)
Wind Speed5.9 mph13.8 mph (6:52 pm)
Wind Gust24.2 mph (6:52 pm)
Weather ElementAverage
Visibility10 mi
Wind DirectionENE (79.1 °)

Weather ElementTotal
Precipitation---
Heating Degree Days52 (Base 65)
Averaged from 23 records on January 3, 2013
WEATHER CONDITIONS BREAKOUT
WIND DIRECTION BREAKOUT
WEATHER BY HOUR - JANUARY 3, 2013
[ °C ]   °F
Local TimeTemperatureDewpointHumidityBarometerVisibilityWind DirectionWind SpeedGust SpeedPrecipitationEventsConditions
1:52 AM9.0 °F3.9 °F80 %29.57 in10.0 miWest (260°)8.1 mphPartly Cloudy
2:52 AM9.0 °F5.0 °F84 %29.57 in10.0 miCalmScattered Clouds
3:52 AM15.1 °F9.0 °F77 %29.58 in10.0 miCalmPartly Cloudy
4:52 AM15.1 °F8.1 °F74 %29.57 in10.0 miCalmClear
5:52 AM15.1 °F8.1 °F74 %29.59 in10.0 miENE (70°)6.9 mphMostly Cloudy
6:52 AM14.0 °F7.0 °F74 %29.59 in10.0 miENE (70°)3.5 mphMostly Cloudy
7:52 AM14.0 °F7.0 °F74 %29.60 in10.0 miWSW (250°)3.5 mphMostly Cloudy
8:52 AM15.1 °F7.0 °F70 %29.61 in10.0 miEast (80°)8.1 mphMostly Cloudy
9:52 AM14.0 °F7.0 °F74 %29.63 in10.0 miNNE (30°)8.1 mphMostly Cloudy
10:52 AM12.9 °F6.1 °F74 %29.65 in10.0 miEast (80°)6.9 mphMostly Cloudy
11:52 AM15.1 °F7.0 °F70 %29.66 in10.0 miSSE (150°)5.8 mphMostly Cloudy
12:52 PM15.1 °F7.0 °F70 %29.66 in10.0 miNE (50°)8.1 mphOvercast
1:52 PM12.9 °F6.1 °F74 %29.66 in10.0 miVariable3.5 mphOvercast
2:52 PM14.0 °F7.0 °F74 %29.65 in10.0 miENE (60°)6.9 mphOvercast
3:52 PM12.9 °F6.1 °F74 %29.65 in10.0 miVariable4.6 mphOvercast
4:52 PM14.0 °F7.0 °F74 %29.66 in10.0 miEast (100°)8.1 mphOvercast
5:52 PM14.0 °F8.1 °F77 %29.66 in10.0 miENE (70°)8.1 mphOvercast
6:52 PM15.1 °F9.0 °F77 %29.63 in10.0 miENE (70°)13.8 mph24.2 mphOvercast
7:52 PM17.1 °F9.0 °F71 %29.65 in10.0 miEast (80°)4.6 mphMostly Cloudy
8:52 PM17.1 °F9.0 °F71 %29.65 in10.0 miESE (110°)8.1 mphPartly Cloudy
9:52 PM16.0 °F9.0 °F74 %29.66 in10.0 miEast (90°)6.9 mphMostly Cloudy
10:52 PM17.1 °F9.0 °F71 %29.67 in10.0 miEast (80°)9.2 mphMostly Cloudy
11:52 PM17.1 °F9.0 °F71 %29.68 in10.0 miESE (120°)3.5 mphClear
Hourly data recorded from PATA, located miles away from Fish Lake, Alaska







STORIES FROM OUR PARTNERS